Darstellungsparameter: Aktuell verwendete Einstellungen:
Skalierung der Graphiken ... ?
xyx+y,   Skalierungsfaktor:      Skalierung: Modus: x, Faktor: 1
Darstellungszeitraum ... ?
Vom - - bis: - -   Zeitraum: 10.05.2020 - 09.05.2021
Min/Max/Avg-Anzeige ... ?
Zeige MMA aktuell
Zeige MMA Monat
Zeige MMA alles
Zeige --A aktuell
Zeige --A Monat
Zeige --A alles
Keine MMA-Anzeige
MMA:
Minimum Maximum Average (ber die Originaldaten)
MMA-Basis: 27.05.2020 - 29.06.2020
Quicknavigation für Darstellung... ?
Tage:      1T, 2T, 3T, 5T -1T -2T -3T -5T +1T +2T +3T +5T
Wochen: 1W, 2W, 3W -1W -2W -3W +1W +2W +3W
Monate: 1M, 3M, 6M -1M -3M -6M +1M +3M +6M
Jahre:    1J, 3J, 5J, 10J -1J -3J -5J -10J +1J +3J +5J +10J
Nutze für die Darstellung ... ?
Originaldaten oder ...
Mittelwerte Minima Maxima auf...
Stundenbasis Tagesbasis Wochenbasis
Monatsbasis Jahresbasis      Datenbasis: Mittelwerte auf Tagesbasis
Darstellen als:
Statistik (Auto) Statistik J:M      Darstellung:
Zur Graphik,    zurück zur Übersicht aller Sensoren.
 
Tabellarische Datenbersicht: ?
 
Sensor: Nr:Datum:Temp:Abs-Feuchte:Windchill:Wind:
Aussen-T/F 1 10-05-2020 00:00:00 15.5441 C 11.54 g/m*3 15.54 C 2.07882 km/h
2 11-05-2020 00:00:00 9.41007 C 6.58 g/m*3 7.22 C 14.7434 km/h
3 12-05-2020 00:00:00 7.67674 C 5.27 g/m*3 7.12 C 5.00139 km/h
4 13-05-2020 00:00:00 8.92604 C 5.92 g/m*3 8.43 C 5.34167 km/h
5 14-05-2020 00:00:00 9.71389 C 6.11 g/m*3 8.97 C 6.69549 km/h
6 15-05-2020 00:00:00 10.43264 C 5.89 g/m*3 9.94 C 6.10278 km/h
7 16-05-2020 00:00:00 11.17396 C 6.49 g/m*3 11.17 C 3.70278 km/h
8 17-05-2020 00:00:00 13.11528 C 7.24 g/m*3 13.12 C 5.45208 km/h
9 18-05-2020 00:00:00 15.67292 C 8.67 g/m*3 15.67 C 4.54201 km/h
10 19-05-2020 00:00:00 16.60729 C 9.31 g/m*3 16.61 C 4.70694 km/h
11 20-05-2020 00:00:00 17.77917 C 10.91 g/m*3 17.78 C 5.79792 km/h
12 21-05-2020 00:00:00 19.01562 C 11.3 g/m*3 19.02 C 4.26215 km/h
13 22-05-2020 00:00:00 19.97639 C 12.99 g/m*3 19.98 C 4.51806 km/h
14 23-05-2020 00:00:00 13.69236 C 10.37 g/m*3 13.69 C 7.32083 km/h
15 24-05-2020 00:00:00 13.58542 C 8.77 g/m*3 13.59 C 8.86458 km/h
16 25-05-2020 00:00:00 15.93854 C 10.17 g/m*3 15.94 C 6.43507 km/h
17 26-05-2020 00:00:00 14.58437 C 8.98 g/m*3 14.58 C 4.27986 km/h
18 27-05-2020 00:00:00 16.48611 C 9.1 g/m*3 16.49 C 3.63056 km/h
19 28-05-2020 00:00:00 17.49132 C 8.08 g/m*3 17.49 C 7.57882 km/h
20 29-05-2020 00:00:00 15.20764 C 7.52 g/m*3 15.21 C 5.83229 km/h
21 30-05-2020 00:00:00 15.6941 C 7.43 g/m*3 15.69 C 7.54688 km/h
22 31-05-2020 00:00:00 15.11597 C 7.85 g/m*3 15.12 C 6.56979 km/h
23 01-06-2020 00:00:00 17.87257 C 9.2 g/m*3 17.87 C 5.67674 km/h
24 02-06-2020 00:00:00 19.76701 C 9.86 g/m*3 19.77 C 4.21389 km/h
25 03-06-2020 00:00:00 19.96667 C 10.41 g/m*3 19.97 C 3.58403 km/h
Sensor: Nr:Datum:Temp:Abs-Feuchte:Windchill:Wind:
Aussen-T/F 26 04-06-2020 00:00:00 14.67257 C 11.5 g/m*3 14.67 C 3.93715 km/h
27 05-06-2020 00:00:00 11.51111 C 8.89 g/m*3 11.51 C 8.28194 km/h
28 06-06-2020 00:00:00 12.4684 C 8.91 g/m*3 12.47 C 7.64097 km/h
29 07-06-2020 00:00:00 13.39861 C 8.64 g/m*3 13.4 C 6.02326 km/h
30 08-06-2020 00:00:00 14.75035 C 9.21 g/m*3 14.75 C 4.38229 km/h
31 09-06-2020 00:00:00 13.99236 C 10.65 g/m*3 13.99 C 4.11076 km/h
32 10-06-2020 00:00:00 15.4 C 11.26 g/m*3 15.4 C 2.45972 km/h
33 11-06-2020 00:00:00 15.74271 C 11.48 g/m*3 15.74 C 2.00035 km/h
34 12-06-2020 00:00:00 19.42083 C 12.29 g/m*3 19.42 C 5.55 km/h
35 13-06-2020 00:00:00 20.95799 C 12.96 g/m*3 20.96 C 4.51701 km/h
36 14-06-2020 00:00:00 18.87917 C 13.01 g/m*3 18.88 C 3.71146 km/h
37 15-06-2020 00:00:00 18.60291 C 12.82 g/m*3 18.6 C 2.99891 km/h
38 16-06-2020 00:00:00 18.0434 C 13.69 g/m*3 18.04 C 1.73021 km/h
39 17-06-2020 00:00:00 17.45903 C 13.34 g/m*3 17.46 C 2.12708 km/h
40 18-06-2020 00:00:00 18.51528 C 12.26 g/m*3 18.52 C 7.04444 km/h
41 19-06-2020 00:00:00 16.72674 C 12.02 g/m*3 16.73 C 5.28472 km/h
42 20-06-2020 00:00:00 16.94271 C 12.22 g/m*3 16.94 C 2.92049 km/h
43 21-06-2020 00:00:00 19.05278 C 12.22 g/m*3 19.05 C 4.57847 km/h
44 22-06-2020 00:00:00 18.83785 C 11.69 g/m*3 18.84 C 5.54479 km/h
45 23-06-2020 00:00:00 19.59583 C 11.59 g/m*3 19.6 C 4.04375 km/h
46 24-06-2020 00:00:00 21.22153 C 11.17 g/m*3 21.22 C 6.9809 km/h
47 25-06-2020 00:00:00 21.70278 C 12.93 g/m*3 21.7 C 6.25174 km/h
48 26-06-2020 00:00:00 21.67743 C 13.49 g/m*3 21.68 C 4.66563 km/h
49 27-06-2020 00:00:00 22.68785 C 14.63 g/m*3 22.69 C 7.36736 km/h
50 28-06-2020 00:00:00 19.86979 C 12.42 g/m*3 19.87 C 6.54306 km/h
Sensor: Nr:Datum:Temp:Abs-Feuchte:Windchill:Wind:
Aussen-T/F 51 29-06-2020 00:00:00 17.69792 C 10.81 g/m*3 17.7 C 7.67604 km/h
52 30-06-2020 00:00:00 16.88194 C 10.24 g/m*3 16.88 C 6.7059 km/h
53 01-07-2020 00:00:00 21.29896 C 13.31 g/m*3 21.3 C 10.40972 km/h
54 02-07-2020 00:00:00 18.73125 C 13.11 g/m*3 18.73 C 5.31354 km/h
55 03-07-2020 00:00:00 17.73958 C 10.91 g/m*3 17.74 C 5.90243 km/h
56 04-07-2020 00:00:00 19.09826 C 11.22 g/m*3 19.1 C 9.03576 km/h
57 05-07-2020 00:00:00 22.80243 C 14.45 g/m*3 22.8 C 14.43472 km/h
58 06-07-2020 00:00:00 16.79653 C 9.41 g/m*3 16.8 C 9.54965 km/h
59 07-07-2020 00:00:00 16.09792 C 9.28 g/m*3 16.1 C 4.51979 km/h
60 08-07-2020 00:00:00 15.87639 C 11.63 g/m*3 15.88 C 2.19965 km/h
61 09-07-2020 00:00:00 21.61424 C 14.17 g/m*3 21.61 C 7.27465 km/h
62 10-07-2020 00:00:00 18.63368 C 12.54 g/m*3 18.63 C 7.30625 km/h
63 11-07-2020 00:00:00 16.57431 C 9.5 g/m*3 16.57 C 5.36806 km/h
64 12-07-2020 00:00:00 16.85382 C 9.47 g/m*3 16.85 C 4.99965 km/h
65 13-07-2020 00:00:00 19.08542 C 9.77 g/m*3 19.09 C 3.90694 km/h
66 14-07-2020 00:00:00 18.66215 C 10.73 g/m*3 18.66 C 4.1316 km/h
67 15-07-2020 00:00:00 17.55208 C 10.88 g/m*3 17.55 C 7.17049 km/h
68 16-07-2020 00:00:00 16.0875 C 12.17 g/m*3 16.09 C 3.15556 km/h
69 17-07-2020 00:00:00 18.58611 C 12.76 g/m*3 18.59 C 4.21146 km/h
70 18-07-2020 00:00:00 19.51944 C 12.49 g/m*3 19.52 C 2.44375 km/h
71 19-07-2020 00:00:00 22.30451 C 12.45 g/m*3 22.3 C 4.27847 km/h
72 20-07-2020 00:00:00 19.42708 C 11.97 g/m*3 19.43 C 5.98542 km/h
73 21-07-2020 00:00:00 17.64722 C 9.36 g/m*3 17.65 C 6.82917 km/h
74 22-07-2020 00:00:00 17.13264 C 9.19 g/m*3 17.13 C 4.72708 km/h
75 23-07-2020 00:00:00 18.84618 C 9.69 g/m*3 18.85 C 3.73542 km/h
Sensor: Nr:Datum:Temp:Abs-Feuchte:Windchill:Wind:
Aussen-T/F 76 24-07-2020 00:00:00 21.21007 C 10.98 g/m*3 21.21 C 5.5434 km/h
77 25-07-2020 00:00:00 21.01562 C 12.46 g/m*3 21.02 C 5.85486 km/h
78 26-07-2020 00:00:00 20.87674 C 12.83 g/m*3 20.88 C 8.55556 km/h
79 27-07-2020 00:00:00 21.66215 C 12.17 g/m*3 21.66 C 4.14063 km/h
80 28-07-2020 00:00:00 22.91424 C 11.11 g/m*3 22.91 C 8.9559 km/h
81 29-07-2020 00:00:00 18.94583 C 10.01 g/m*3 18.95 C 5.47014 km/h
82 30-07-2020 00:00:00 20.4309 C 10.48 g/m*3 20.43 C 3.57708 km/h
83 31-07-2020 00:00:00 24.16007 C 11.62 g/m*3 24.16 C 4.00486 km/h
84 01-08-2020 00:00:00 21.98437 C 15.22 g/m*3 21.98 C 4.02361 km/h
85 02-08-2020 00:00:00 21.28472 C 13.76 g/m*3 21.28 C 6.21458 km/h
86 03-08-2020 00:00:00 18.1684 C 11.28 g/m*3 18.17 C 2.92361 km/h
87 04-08-2020 00:00:00 19.15486 C 10.65 g/m*3 19.15 C 6.45208 km/h
88 05-08-2020 00:00:00 19.44549 C 10.24 g/m*3 19.45 C 3.93229 km/h
89 06-08-2020 00:00:00 21.8184 C 11.42 g/m*3 21.82 C 3.88889 km/h
90 07-08-2020 00:00:00 23.97535 C 12.92 g/m*3 23.98 C 3.60313 km/h
91 08-08-2020 00:00:00 26.13125 C 14.27 g/m*3 26.13 C 2.67743 km/h
92 09-08-2020 00:00:00 24.35937 C 14.79 g/m*3 24.36 C 2.33125 km/h
93 10-08-2020 00:00:00 25.68472 C 16.31 g/m*3 25.68 C 5.31979 km/h
94 11-08-2020 00:00:00 25.77396 C 16.38 g/m*3 25.77 C 4.50417 km/h
95 12-08-2020 00:00:00 23.65799 C 17.61 g/m*3 23.66 C 4.37049 km/h
96 13-08-2020 00:00:00 23.34201 C 17.36 g/m*3 23.34 C 4.0875 km/h
97 14-08-2020 00:00:00 23.16285 C 16 g/m*3 23.16 C 4.93507 km/h
98 15-08-2020 00:00:00 21.83368 C 16.27 g/m*3 21.83 C 1.87465 km/h
99 16-08-2020 00:00:00 22.52535 C 15.98 g/m*3 22.53 C 4.53715 km/h
100 17-08-2020 00:00:00 21.08056 C 15.08 g/m*3 21.08 C 5.46771 km/h
Sensor: Nr:Datum:Temp:Abs-Feuchte:Windchill:Wind:
Aussen-T/F 101 18-08-2020 00:00:00 19.08924 C 13.44 g/m*3 19.09 C 5.45035 km/h
102 19-08-2020 00:00:00 19.13125 C 13.6 g/m*3 19.13 C 2.6 km/h
103 20-08-2020 00:00:00 23.86042 C 16.77 g/m*3 23.86 C 3.63333 km/h
104 21-08-2020 00:00:00 25.27743 C 16.68 g/m*3 25.28 C 3.1684 km/h
105 22-08-2020 00:00:00 22.45625 C 13.37 g/m*3 22.46 C 8.48924 km/h
106 23-08-2020 00:00:00 19.15764 C 11.48 g/m*3 19.16 C 8.00417 km/h
107 24-08-2020 00:00:00 18.23437 C 11.11 g/m*3 18.23 C 7.39236 km/h
108 25-08-2020 00:00:00 19.07917 C 11.78 g/m*3 19.08 C 2.38854 km/h
109 26-08-2020 00:00:00 20.74132 C 10.59 g/m*3 20.74 C 17.51354 km/h
110 27-08-2020 00:00:00 18.39271 C 10.85 g/m*3 18.39 C 4.98194 km/h
111 28-08-2020 00:00:00 17.86667 C 11.89 g/m*3 17.87 C 5.87326 km/h
112 29-08-2020 00:00:00 16.24479 C 10.69 g/m*3 16.24 C 6.83125 km/h
113 30-08-2020 00:00:00 15.77153 C 10.79 g/m*3 15.77 C 3.10139 km/h
114 31-08-2020 00:00:00 15.63437 C 11.83 g/m*3 15.63 C 1.73993 km/h
115 01-09-2020 00:00:00 15.08889 C 11.37 g/m*3 15.09 C 2.16007 km/h
116 02-09-2020 00:00:00 15.65833 C 10.57 g/m*3 15.66 C 1.79826 km/h
117 03-09-2020 00:00:00 14.23542 C 10.76 g/m*3 14.24 C 2.02188 km/h
118 04-09-2020 00:00:00 20.30278 C 14.14 g/m*3 20.3 C 2.91528 km/h
119 05-09-2020 00:00:00 16.89688 C 11.32 g/m*3 16.9 C 5.12153 km/h
120 06-09-2020 00:00:00 13.28021 C 8.89 g/m*3 13.28 C 1.89306 km/h
121 07-09-2020 00:00:00 14.01493 C 9.14 g/m*3 14.01 C 1.69861 km/h
122 08-09-2020 00:00:00 16.29826 C 10.22 g/m*3 16.3 C 3.6691 km/h
123 09-09-2020 00:00:00 18.26667 C 12.68 g/m*3 18.27 C 2.00243 km/h
124 10-09-2020 00:00:00 17.81319 C 11.11 g/m*3 17.81 C 4.58264 km/h
125 11-09-2020 00:00:00 15.1066 C 9.78 g/m*3 15.11 C 1.90382 km/h
Sensor: Nr:Datum:Temp:Abs-Feuchte:Windchill:Wind:
Aussen-T/F 126 12-09-2020 00:00:00 17.20625 C 11.1 g/m*3 17.21 C 2.67917 km/h
127 13-09-2020 00:00:00 17.20486 C 10.98 g/m*3 17.2 C 1.15799 km/h
128 14-09-2020 00:00:00 18.81806 C 11.85 g/m*3 18.82 C 1.44514 km/h
129 15-09-2020 00:00:00 20.38194 C 12.5 g/m*3 20.38 C 1.33438 km/h
130 16-09-2020 00:00:00 20.67049 C 13.3 g/m*3 20.67 C 2.85139 km/h
131 17-09-2020 00:00:00 17.93958 C 9.81 g/m*3 17.94 C 7.81493 km/h
132 18-09-2020 00:00:00 15.74687 C 8.85 g/m*3 15.75 C 5.23993 km/h
133 19-09-2020 00:00:00 15.73333 C 8.37 g/m*3 15.73 C 3.23229 km/h
134 20-09-2020 00:00:00 14.83056 C 8.79 g/m*3 14.83 C 0.98333 km/h
135 21-09-2020 00:00:00 14.75174 C 8.82 g/m*3 14.75 C 1.3875 km/h
136 22-09-2020 00:00:00 16.10521 C 9.55 g/m*3 16.11 C 2.65486 km/h
137 23-09-2020 00:00:00 17.57639 C 10.33 g/m*3 17.58 C 4.72743 km/h
138 24-09-2020 00:00:00 16.23021 C 10.63 g/m*3 16.23 C 6.51458 km/h
139 25-09-2020 00:00:00 12.16979 C 8.92 g/m*3 12.17 C 6.2375 km/h
140 26-09-2020 00:00:00 10.52674 C 8.57 g/m*3 9.23 C 10.16528 km/h
141 27-09-2020 00:00:00 11.00694 C 9.2 g/m*3 11.01 C 3.05417 km/h
142 28-09-2020 00:00:00 11.72882 C 9.12 g/m*3 11.73 C 2.08542 km/h
143 29-09-2020 00:00:00 12.13333 C 10.11 g/m*3 12.13 C 2.01181 km/h
144 30-09-2020 00:00:00 14.10799 C 11.27 g/m*3 14.11 C 1.49028 km/h
145 01-10-2020 00:00:00 12.57465 C 10.28 g/m*3 12.57 C 1.79167 km/h
146 02-10-2020 00:00:00 13.41493 C 10.32 g/m*3 13.41 C 3.99028 km/h
147 03-10-2020 00:00:00 13.37049 C 10.26 g/m*3 13.37 C 4.70139 km/h
148 04-10-2020 00:00:00 11.79861 C 9.09 g/m*3 11.8 C 5.03785 km/h
149 05-10-2020 00:00:00 11.07257 C 9.18 g/m*3 11.07 C 4.18125 km/h
150 06-10-2020 00:00:00 13.11389 C 10.11 g/m*3 13.11 C 9.72361 km/h
Sensor: Nr:Datum:Temp:Abs-Feuchte:Windchill:Wind:
Aussen-T/F 151 07-10-2020 00:00:00 13.19444 C 9.43 g/m*3 13.19 C 10.52674 km/h
152 08-10-2020 00:00:00 13.25243 C 10.22 g/m*3 13.25 C 9.92882 km/h
153 09-10-2020 00:00:00 12.99063 C 10.74 g/m*3 12.99 C 3.04167 km/h
154 10-10-2020 00:00:00 9.91979 C 8.09 g/m*3 9.53 C 5.46806 km/h
155 11-10-2020 00:00:00 10.06944 C 7.91 g/m*3 10.07 C 3.7941 km/h
156 12-10-2020 00:00:00 9.40799 C 8.28 g/m*3 9.41 C 2.21146 km/h
157 13-10-2020 00:00:00 7.37361 C 7.35 g/m*3 7.37 C 1.675 km/h
158 14-10-2020 00:00:00 7.7559 C 7.3 g/m*3 7.76 C 3.28819 km/h
159 15-10-2020 00:00:00 9.09444 C 8.18 g/m*3 9.09 C 2.88958 km/h
160 16-10-2020 00:00:00 9.26007 C 8.27 g/m*3 9.26 C 1.825 km/h
161 17-10-2020 00:00:00 6.19618 C 6.87 g/m*3 6.2 C 0.83403 km/h
162 18-10-2020 00:00:00 8.18958 C 7.58 g/m*3 8.19 C 3.07847 km/h
163 19-10-2020 00:00:00 8.62604 C 7.89 g/m*3 8.63 C 1.77847 km/h
164 20-10-2020 00:00:00 8.95714 C 8.23 g/m*3 8.96 C 1.27108 km/h
165 21-10-2020 00:00:00 15.08611 C 10.6 g/m*3 15.09 C 3.43924 km/h
166 22-10-2020 00:00:00 16.18681 C 11.86 g/m*3 16.19 C 3.23125 km/h
167 23-10-2020 00:00:00 15.0691 C 11.94 g/m*3 15.07 C 1.57049 km/h
168 24-10-2020 00:00:00 13.40799 C 10.12 g/m*3 13.41 C 5.98194 km/h
169 25-10-2020 00:00:00 13.16458 C 9.89 g/m*3 13.16 C 2.75104 km/h
170 26-10-2020 00:00:00 10.20313 C 8.43 g/m*3 10.2 C 3.64583 km/h
171 27-10-2020 00:00:00 10.44514 C 8.03 g/m*3 10.45 C 4.82604 km/h
172 28-10-2020 00:00:00 12.59861 C 9.23 g/m*3 12.6 C 6.52049 km/h
173 29-10-2020 00:00:00 10.65347 C 9 g/m*3 10.04 C 6.76285 km/h
174 30-10-2020 00:00:00 13.81667 C 10.81 g/m*3 13.82 C 7.83611 km/h
175 31-10-2020 00:00:00 13.1434 C 9.98 g/m*3 13.14 C 3.45035 km/h
Sensor: Nr:Datum:Temp:Abs-Feuchte:Windchill:Wind:
Aussen-T/F 176 01-11-2020 00:00:00 15.18715 C 11.89 g/m*3 15.19 C 6.08715 km/h
177 02-11-2020 00:00:00 18.53125 C 12.8 g/m*3 18.53 C 13.2875 km/h
178 03-11-2020 00:00:00 10.3559 C 8.24 g/m*3 10.11 C 5.15382 km/h
179 04-11-2020 00:00:00 4.54444 C 6.28 g/m*3 4.54 C 0.86667 km/h
180 05-11-2020 00:00:00 3.1178 C 5.8 g/m*3 3.12 C 0.73898 km/h
181 06-11-2020 00:00:00 3.23681 C 5.88 g/m*3 3.24 C 1.18333 km/h
182 07-11-2020 00:00:00 4.20285 C 6.18 g/m*3 4.2 C 1.19573 km/h
183 08-11-2020 00:00:00 7.08472 C 7.39 g/m*3 7.08 C 0 km/h
184 09-11-2020 00:00:00 9.85972 C 8.93 g/m*3 9.86 C 0.26701 km/h
185 10-11-2020 00:00:00 7.08333 C 7.56 g/m*3 7.08 C 0.01667 km/h
186 11-11-2020 00:00:00 9.01875 C 8.34 g/m*3 9.02 C 2.23264 km/h
187 12-11-2020 00:00:00 9.26458 C 8.1 g/m*3 9.26 C 3.0566 km/h
188 13-11-2020 00:00:00 6.6191 C 7.24 g/m*3 6.62 C 0.48889 km/h
189 14-11-2020 00:00:00 10.4625 C 9 g/m*3 10.46 C 1.51354 km/h
190 15-11-2020 00:00:00 13.18819 C 9.92 g/m*3 13.19 C 4.00243 km/h
191 16-11-2020 00:00:00 10.81736 C 8.52 g/m*3 9.48 C 10.79271 km/h
192 17-11-2020 00:00:00 11.47778 C 8.76 g/m*3 11.48 C 8.51979 km/h
193 18-11-2020 00:00:00 9.90625 C 8.37 g/m*3 9.91 C 1.85 km/h
194 19-11-2020 00:00:00 8.99688 C 7.8 g/m*3 7.89 C 7.74306 km/h
195 20-11-2020 00:00:00 4.04167 C 5.9 g/m*3 4.04 C 2.40313 km/h
196 21-11-2020 00:00:00 3.39688 C 5.47 g/m*3 3.4 C 3.25903 km/h
197 22-11-2020 00:00:00 7.66701 C 6.84 g/m*3 5.58 C 11.4559 km/h
198 23-11-2020 00:00:00 7.74201 C 7.38 g/m*3 7.74 C 3.77917 km/h
199 24-11-2020 00:00:00 6.32917 C 6.81 g/m*3 6.33 C 1.77986 km/h
200 25-11-2020 00:00:00 4.53125 C 6.15 g/m*3 4.53 C 0.70139 km/h
Sensor: Nr:Datum:Temp:Abs-Feuchte:Windchill:Wind:
Aussen-T/F 201 26-11-2020 00:00:00 3.39653 C 5.79 g/m*3 3.4 C 1.24549 km/h
202 27-11-2020 00:00:00 3.65278 C 5.83 g/m*3 3.65 C 1.20035 km/h
203 28-11-2020 00:00:00 3.30521 C 5.6 g/m*3 3.31 C 2.09618 km/h
204 29-11-2020 00:00:00 0.89479 C 4.42 g/m*3 0.89 C 3.54375 km/h
205 30-11-2020 00:00:00 -1.56215 C 4.02 g/m*3 -1.56 C 4.05417 km/h
206 01-12-2020 00:00:00 2.81111 C 5.62 g/m*3 2.81 C 3.11563 km/h
207 02-12-2020 00:00:00 2.83889 C 5.63 g/m*3 2.84 C 0.50069 km/h
208 03-12-2020 00:00:00 3.59132 C 5.69 g/m*3 3.59 C 3.66944 km/h
209 04-12-2020 00:00:00 4.57361 C 6.21 g/m*3 4.57 C 4.0434 km/h
210 05-12-2020 00:00:00 4.12778 C 6.14 g/m*3 4.13 C 0.80104 km/h
211 06-12-2020 00:00:00 3.92917 C 6.1 g/m*3 3.93 C 0.6 km/h
212 07-12-2020 00:00:00 4.18854 C 6.12 g/m*3 4.19 C 2.85451 km/h
213 08-12-2020 00:00:00 3.36667 C 5.64 g/m*3 3.37 C 1.2316 km/h
214 09-12-2020 00:00:00 2.17326 C 5.2 g/m*3 2.17 C 2.31875 km/h
215 10-12-2020 00:00:00 0.38125 C 4.65 g/m*3 0.38 C 0.52222 km/h
216 11-12-2020 00:00:00 2.71597 C 5.29 g/m*3 2.72 C 3.92118 km/h
217 12-12-2020 00:00:00 6.01111 C 6.89 g/m*3 6.01 C 0.17222 km/h
218 13-12-2020 00:00:00 5.90799 C 6.84 g/m*3 5.91 C 2.30521 km/h
219 14-12-2020 00:00:00 6.08576 C 6.6 g/m*3 6.09 C 1.23472 km/h
220 15-12-2020 00:00:00 7.82014 C 7.84 g/m*3 7.82 C 0.87257 km/h
221 16-12-2020 00:00:00 7.48125 C 7.77 g/m*3 7.48 C 1.33438 km/h
222 17-12-2020 00:00:00 7.2309 C 7.48 g/m*3 7.23 C 3.21736 km/h
223 18-12-2020 00:00:00 4.31771 C 6.31 g/m*3 4.32 C 0.91875 km/h
224 19-12-2020 00:00:00 6.22292 C 6.99 g/m*3 6.22 C 2.33125 km/h
225 20-12-2020 00:00:00 7.98889 C 7.77 g/m*3 7.99 C 1.88681 km/h
Sensor: Nr:Datum:Temp:Abs-Feuchte:Windchill:Wind:
Aussen-T/F 226 21-12-2020 00:00:00 7.12639 C 7.44 g/m*3 7.13 C 1.81632 km/h
227 22-12-2020 00:00:00 13.11875 C 10.58 g/m*3 13.12 C 11.07153 km/h
228 23-12-2020 00:00:00 11.78889 C 10.17 g/m*3 11.79 C 3.35243 km/h
229 24-12-2020 00:00:00 6.83681 C 6.92 g/m*3 5.18 C 8.46944 km/h
230 25-12-2020 00:00:00 3.34653 C 5.57 g/m*3 3.35 C 4.76597 km/h
231 26-12-2020 00:00:00 2.93368 C 5.31 g/m*3 1.57 C 5.40313 km/h
232 27-12-2020 00:00:00 3.76528 C 5.54 g/m*3 1.83 C 7.48889 km/h
233 28-12-2020 00:00:00 3.67431 C 5.96 g/m*3 3.67 C 1.42951 km/h
234 29-12-2020 00:00:00 2.99375 C 5.59 g/m*3 2.99 C 4.11563 km/h
235 30-12-2020 00:00:00 3.90938 C 5.81 g/m*3 3.91 C 3.58611 km/h
236 31-12-2020 00:00:00 2.97986 C 5.53 g/m*3 2.98 C 0.83403 km/h
237 01-01-2021 00:00:00 2.09757 C 5.39 g/m*3 2.1 C 0.48889 km/h
238 02-01-2021 00:00:00 1.36771 C 5.11 g/m*3 1.37 C 1.04444 km/h
239 03-01-2021 00:00:00 2.60903 C 5.25 g/m*3 2.61 C 1.92639 km/h
240 04-01-2021 00:00:00 1.67326 C 5.23 g/m*3 1.67 C 0.16111 km/h
241 05-01-2021 00:00:00 2.52431 C 5.48 g/m*3 2.52 C 0.38368 km/h
242 06-01-2021 00:00:00 2.73333 C 5.49 g/m*3 2.73 C 2.58472 km/h
243 07-01-2021 00:00:00 2.03368 C 5.13 g/m*3 0.45 C 5.63299 km/h
244 08-01-2021 00:00:00 1.95556 C 5.27 g/m*3 1.96 C 3.92118 km/h
245 09-01-2021 00:00:00 1.34271 C 5 g/m*3 1.34 C 0.99063 km/h
246 10-01-2021 00:00:00 0.68472 C 4.71 g/m*3 0.68 C 0.51667 km/h
247 11-01-2021 00:00:00 -0.44062 C 4.24 g/m*3 -0.44 C 3.43576 km/h
248 12-01-2021 00:00:00 3.87847 C 5.74 g/m*3 0.48 C 14.31424 km/h
249 13-01-2021 00:00:00 2.46875 C 5.1 g/m*3 0.17 C 7.98368 km/h
250 14-01-2021 00:00:00 2.00556 C 4.78 g/m*3 2.01 C 3.29306 km/h
Sensor: Nr:Datum:Temp:Abs-Feuchte:Windchill:Wind:
Aussen-T/F 251 15-01-2021 00:00:00 0.32431 C 4.31 g/m*3 0.32 C 2.99722 km/h
252 16-01-2021 00:00:00 0.42812 C 4.13 g/m*3 0.43 C 2.00035 km/h
253 17-01-2021 00:00:00 0.51181 C 4.78 g/m*3 0.51 C 0.83889 km/h
254 18-01-2021 00:00:00 3.81701 C 5.75 g/m*3 1.14 C 10.44931 km/h
255 19-01-2021 00:00:00 5.13611 C 5.81 g/m*3 1.48 C 18.11319 km/h
256 20-01-2021 00:00:00 6.33056 C 6.06 g/m*3 6.33 C 2.75417 km/h
257 21-01-2021 00:00:00 8.93368 C 7.12 g/m*3 7.66 C 8.425 km/h
258 22-01-2021 00:00:00 5.72396 C 6.54 g/m*3 5.72 C 4.93958 km/h
259 23-01-2021 00:00:00 4.06493 C 5.91 g/m*3 4.06 C 2.17917 km/h
260 24-01-2021 00:00:00 2.12708 C 5.13 g/m*3 -0.06 C 7.40764 km/h
261 25-01-2021 00:00:00 1.33611 C 4.95 g/m*3 1.34 C 3.10799 km/h
262 26-01-2021 00:00:00 3.28854 C 5.12 g/m*3 0.08 C 12.50764 km/h
263 27-01-2021 00:00:00 2.29201 C 5.26 g/m*3 0.33 C 6.80069 km/h
264 28-01-2021 00:00:00 7.12014 C 7.32 g/m*3 5.58 C 8.17292 km/h
265 29-01-2021 00:00:00 8.84861 C 7.84 g/m*3 7.37 C 9.37882 km/h
266 30-01-2021 00:00:00 4.08715 C 5.94 g/m*3 2.71 C 5.89028 km/h
267 31-01-2021 00:00:00 1.01563 C 4.75 g/m*3 1.02 C 3.0691 km/h
268 01-02-2021 00:00:00 3.89132 C 6.09 g/m*3 3.89 C 0.50556 km/h
269 02-02-2021 00:00:00 7.66319 C 7.66 g/m*3 7.66 C 4.7059 km/h
270 03-02-2021 00:00:00 9.71944 C 8.69 g/m*3 8.81 C 7.37257 km/h
271 04-02-2021 00:00:00 6.63229 C 6.74 g/m*3 5.49 C 6.36007 km/h
272 05-02-2021 00:00:00 6.42708 C 7.17 g/m*3 6.43 C 0.39444 km/h
273 06-02-2021 00:00:00 5.10799 C 6.57 g/m*3 5.11 C 4.53368 km/h
274 07-02-2021 00:00:00 1.10556 C 4.97 g/m*3 -1.05 C 6.80382 km/h
275 08-02-2021 00:00:00 -3.50382 C 3.33 g/m*3 -6.19 C 6.30174 km/h
Sensor: Nr:Datum:Temp:Abs-Feuchte:Windchill:Wind:
Aussen-T/F 276 09-02-2021 00:00:00 -4.71007 C 2.78 g/m*3 -4.71 C 4.2184 km/h
277 10-02-2021 00:00:00 -5.63507 C 2.57 g/m*3 -8.41 C 5.80521 km/h
278 11-02-2021 00:00:00 -3.28646 C 3.22 g/m*3 -3.29 C 2.92708 km/h
279 12-02-2021 00:00:00 -4.72708 C 2.76 g/m*3 -7.18 C 5.43333 km/h
280 13-02-2021 00:00:00 -5.43715 C 2.6 g/m*3 -5.44 C 4.15972 km/h
281 14-02-2021 00:00:00 -3.78299 C 2.97 g/m*3 -3.78 C 3.77639 km/h
282 15-02-2021 00:00:00 0.83194 C 4.03 g/m*3 0.83 C 3.01076 km/h
283 16-02-2021 00:00:00 5.64757 C 6.68 g/m*3 5.65 C 2.22083 km/h
284 17-02-2021 00:00:00 7.15451 C 7.09 g/m*3 6.09 C 6.37882 km/h
285 18-02-2021 00:00:00 4.16806 C 5.98 g/m*3 4.17 C 1.98299 km/h
286 19-02-2021 00:00:00 6.25486 C 6.54 g/m*3 6.25 C 3.35313 km/h
287 20-02-2021 00:00:00 6.97083 C 6.8 g/m*3 6.97 C 2.57396 km/h
288 21-02-2021 00:00:00 7.73056 C 6.69 g/m*3 7.73 C 2.58576 km/h
289 22-02-2021 00:00:00 6.65069 C 6.65 g/m*3 6.65 C 0.62222 km/h
290 23-02-2021 00:00:00 11.51076 C 8.49 g/m*3 11.51 C 2.42118 km/h
291 24-02-2021 00:00:00 10.01771 C 8.19 g/m*3 10.02 C 0.61875 km/h
292 25-02-2021 00:00:00 9.55417 C 7.4 g/m*3 9.55 C 1.55729 km/h
293 26-02-2021 00:00:00 7.00972 C 6.81 g/m*3 7.01 C 3.14549 km/h
294 27-02-2021 00:00:00 4.3559 C 5.65 g/m*3 4.36 C 2.49097 km/h
295 28-02-2021 00:00:00 5.84236 C 5.47 g/m*3 5.84 C 3.60833 km/h
296 01-03-2021 00:00:00 4.21632 C 5.4 g/m*3 4.22 C 2.37847 km/h
297 02-03-2021 00:00:00 5.65937 C 5.96 g/m*3 5.66 C 1.23507 km/h
298 03-03-2021 00:00:00 6.83889 C 6.33 g/m*3 6.84 C 0.12257 km/h
299 04-03-2021 00:00:00 6.55764 C 6.74 g/m*3 6.56 C 3.55313 km/h
300 05-03-2021 00:00:00 3.77535 C 4.98 g/m*3 2.49 C 5.53229 km/h
Sensor: Nr:Datum:Temp:Abs-Feuchte:Windchill:Wind:
Aussen-T/F 301 06-03-2021 00:00:00 0.57465 C 3.84 g/m*3 0.57 C 2.44063 km/h
302 07-03-2021 00:00:00 0.7691 C 3.86 g/m*3 0.77 C 2.72396 km/h
303 08-03-2021 00:00:00 1.04618 C 4.49 g/m*3 1.05 C 1.37882 km/h
304 09-03-2021 00:00:00 3.11875 C 5.52 g/m*3 3.12 C 3.20972 km/h
305 10-03-2021 00:00:00 6.84306 C 6.46 g/m*3 6.84 C 4.01632 km/h
306 11-03-2021 00:00:00 9.20314 C 7.48 g/m*3 6.86 C 15.55366 km/h
307 12-03-2021 00:00:00 7.43993 C 6.26 g/m*3 4.47 C 17.16042 km/h
308 13-03-2021 00:00:00 7.28785 C 6.56 g/m*3 4.45 C 15.90972 km/h
309 14-03-2021 00:00:00 5.28681 C 6.04 g/m*3 3.05 C 9.75208 km/h
310 15-03-2021 00:00:00 5.93368 C 6.34 g/m*3 3.58 C 10.97049 km/h
311 16-03-2021 00:00:00 5.88194 C 6.21 g/m*3 4.47 C 6.89375 km/h
312 17-03-2021 00:00:00 4.87465 C 5.76 g/m*3 3.68 C 5.70139 km/h
313 18-03-2021 00:00:00 3.22188 C 5.22 g/m*3 3.22 C 2.85868 km/h
314 19-03-2021 00:00:00 3.84687 C 4.87 g/m*3 1.93 C 7.48194 km/h
315 20-03-2021 00:00:00 3.32257 C 4.42 g/m*3 3.32 C 3.30972 km/h
316 21-03-2021 00:00:00 6.1125 C 5.79 g/m*3 4.38 C 8.22882 km/h
317 22-03-2021 00:00:00 5.83993 C 5.87 g/m*3 4.54 C 6.48854 km/h
318 23-03-2021 00:00:00 6.76528 C 5.9 g/m*3 6.77 C 3.50764 km/h
319 24-03-2021 00:00:00 7.14167 C 5.95 g/m*3 7.14 C 4.22708 km/h
320 25-03-2021 00:00:00 8.49722 C 6.82 g/m*3 8.5 C 3.22431 km/h
321 26-03-2021 00:00:00 9.88403 C 7.14 g/m*3 9.88 C 4.49097 km/h
322 27-03-2021 00:00:00 7.20521 C 6.21 g/m*3 4.85 C 12.49097 km/h
323 28-03-2021 00:00:00 9.55036 C 6.58 g/m*3 8.36 C 8.58261 km/h
324 29-03-2021 00:00:00 11.67292 C 6.87 g/m*3 11.67 C 4.90069 km/h
325 30-03-2021 00:00:00 11.68646 C 6.84 g/m*3 11.69 C 2.11215 km/h
Sensor: Nr:Datum:Temp:Abs-Feuchte:Windchill:Wind:
Aussen-T/F 326 31-03-2021 00:00:00 13.42674 C 7.38 g/m*3 13.43 C 2.87361 km/h
327 01-04-2021 00:00:00 13.89479 C 8 g/m*3 13.89 C 5.97882 km/h
328 02-04-2021 00:00:00 7.69549 C 5.85 g/m*3 6.16 C 8.63021 km/h
329 03-04-2021 00:00:00 8.11632 C 5.29 g/m*3 6.65 C 8.66354 km/h
330 04-04-2021 00:00:00 5.18472 C 5.34 g/m*3 5.18 C 4.87118 km/h
331 05-04-2021 00:00:00 3.5066 C 5.08 g/m*3 0.64 C 11.04618 km/h
332 06-04-2021 00:00:00 3.10833 C 4.54 g/m*3 -0.12 C 12.41181 km/h
333 07-04-2021 00:00:00 2.56146 C 4.68 g/m*3 -0.72 C 12.11146 km/h
334 08-04-2021 00:00:00 5.13542 C 4.48 g/m*3 3.33 C 7.87361 km/h
335 09-04-2021 00:00:00 7.67569 C 5.32 g/m*3 7.02 C 5.28299 km/h
336 10-04-2021 00:00:00 9.22222 C 8.4 g/m*3 9.22 C 1.18403 km/h
337 11-04-2021 00:00:00 6.60278 C 7.19 g/m*3 6.6 C 4.95972 km/h
338 12-04-2021 00:00:00 4.1684 C 5.57 g/m*3 4.17 C 4.32639 km/h
339 13-04-2021 00:00:00 3.34167 C 4.98 g/m*3 3.34 C 3.61632 km/h
340 14-04-2021 00:00:00 3.12951 C 4.75 g/m*3 3.13 C 3.88542 km/h
341 15-04-2021 00:00:00 3.68819 C 5.09 g/m*3 3.69 C 3.12118 km/h
342 16-04-2021 00:00:00 5.33542 C 5.22 g/m*3 5.34 C 3.51285 km/h
343 17-04-2021 00:00:00 7.09653 C 5.49 g/m*3 6.17 C 5.88438 km/h
344 18-04-2021 00:00:00 8.96424 C 6.75 g/m*3 8.96 C 2.73646 km/h
345 19-04-2021 00:00:00 10.27361 C 7.94 g/m*3 10.27 C 2.30833 km/h
346 20-04-2021 00:00:00 9.49931 C 7 g/m*3 9.5 C 1.27014 km/h
347 21-04-2021 00:00:00 10.74375 C 7.19 g/m*3 10.74 C 4.1559 km/h
348 22-04-2021 00:00:00 8.7816 C 5.49 g/m*3 7.62 C 7.78299 km/h
349 23-04-2021 00:00:00 8.16632 C 5.66 g/m*3 8.17 C 3.86354 km/h
350 24-04-2021 00:00:00 9.06042 C 5.94 g/m*3 9.06 C 4.74271 km/h
Sensor: Nr:Datum:Temp:Abs-Feuchte:Windchill:Wind:
Aussen-T/F 351 25-04-2021 00:00:00 8.31076 C 5.47 g/m*3 7.66 C 5.55833 km/h
352 26-04-2021 00:00:00 8.13646 C 4.8 g/m*3 7.29 C 6.14479 km/h
353 27-04-2021 00:00:00 10.01632 C 4.89 g/m*3 9.49 C 6.01563 km/h
354 28-04-2021 00:00:00 11.48438 C 6.33 g/m*3 11.48 C 4.43889 km/h
355 29-04-2021 00:00:00 11.84201 C 7.06 g/m*3 11.84 C 12.02014 km/h
356 30-04-2021 00:00:00 8.08681 C 6.14 g/m*3 8.09 C 3.95208 km/h
357 01-05-2021 00:00:00 10.12083 C 6.33 g/m*3 9.78 C 5.36493 km/h
358 02-05-2021 00:00:00 8.56319 C 5.79 g/m*3 7.66 C 6.59236 km/h
359 03-05-2021 00:00:00 8.08958 C 5.62 g/m*3 7.18 C 6.33889 km/h
360 04-05-2021 00:00:00 11.0875 C 7.2 g/m*3 11.09 C 14.54444 km/h
361 05-05-2021 00:00:00 7.64479 C 6.14 g/m*3 5.69 C 10.66319 km/h
362 06-05-2021 00:00:00 7.87813 C 6.69 g/m*3 7.06 C 5.91215 km/h
363 07-05-2021 00:00:00 7.66736 C 6.41 g/m*3 6.56 C 6.81389 km/h
364 08-05-2021 00:00:00 9.96632 C 6.83 g/m*3 9.97 C 3.73576 km/h
365 09-05-2021 00:00:00 18.04653 C 10.08 g/m*3 18.05 C 6.30035 km/h

Maximal/Minimal-Werte vom 27.05.2020 - 29.06.2020

Sensor Min Max Avg
Temp
(Aussen-T/F)
6.7 °C
29-05-2020  05:40:00
32.1 °C
26-06-2020  16:40:00
17.58 °C

Die Daten stammen von einer Davis Vantage Pro 2 Wetter-Station und werden unter Linux mit der Software wview2wettercgi und aufbereitet. Alle Angaben erfolgen ohne Gewähr für ihre Vollständigkeit oder Richtigkeit.
Kontakt: Rainer Krienke krienke@uni-koblenz.de . Meine Webseiten an der Uni Koblenz oder privat.
Version: $Revision: 0.78 $